Time,TemperatureF,DewpointF,PressureIn,WindDirection,WindDirectionDegrees,WindSpeedMPH,WindSpeedGustMPH,Humidity,HourlyPrecipIn,Conditions,Clouds,dailyrainin,SoftwareType,DateUTC
2013-01-03 00:00:00,26.8,17.3,30.21,WNW,295,3.0,3.0,67,0.00,,CLR,0.00,VWS V14.01,2013-01-03 05:00:00,
2013-01-03 00:02:00,26.9,17.4,30.21,WNW,302,2.0,4.0,67,0.00,,CLR,0.00,VWS V14.01,2013-01-03 05:02:00,
2013-01-03 00:03:00,26.9,17.1,30.21,WNW,292,2.0,5.0,66,0.00,,CLR,0.00,VWS V14.01,2013-01-03 05:03:00,
2013-01-03 00:08:00,27.1,17.3,30.21,NW,309,2.0,6.0,66,0.00,,CLR,0.00,VWS V14.01,2013-01-03 05:08:00,
2013-01-03 00:13:00,27.1,17.3,30.20,NNW,333,3.0,6.0,66,0.00,,CLR,0.00,VWS V14.01,2013-01-03 05:13:00,
2013-01-03 00:18:00,27.1,17.3,30.20,NW,304,2.0,6.0,66,0.00,,CLR,0.00,VWS V14.01,2013-01-03 05:18:00,
2013-01-03 00:23:00,27.1,17.3,30.20,NNW,336,2.0,6.0,66,0.00,,CLR,0.00,VWS V14.01,2013-01-03 05:23:00,
2013-01-03 00:28:00,27.0,17.2,30.20,NNW,327,2.0,6.0,66,0.00,,CLR,0.00,VWS V14.01,2013-01-03 05:28:00,
2013-01-03 00:33:00,27.0,17.5,30.20,West,281,2.0,6.0,67,0.00,,CLR,0.00,VWS V14.01,2013-01-03 05:33:00,
2013-01-03 00:38:00,27.0,17.2,30.21,WNW,294,2.0,6.0,66,0.00,,CLR,0.00,VWS V14.01,2013-01-03 05:38:00,
2013-01-03 00:43:00,27.0,17.2,30.21,NNW,329,3.0,6.0,66,0.00,,CLR,0.00,VWS V14.01,2013-01-03 05:43:00,
2013-01-03 00:48:00,27.0,17.2,30.20,WNW,289,2.0,6.0,66,0.00,,CLR,0.00,VWS V14.01,2013-01-03 05:48:00,
2013-01-03 00:53:00,27.0,17.5,30.20,WNW,296,3.0,6.0,67,0.00,,CLR,0.00,VWS V14.01,2013-01-03 05:53:00,
2013-01-03 00:58:00,27.0,17.2,30.20,WNW,292,1.0,6.0,66,0.00,,CLR,0.00,VWS V14.01,2013-01-03 05:58:00,
2013-01-03 01:03:00,27.0,17.5,30.20,NW,311,1.0,3.0,67,0.00,,CLR,0.00,VWS V14.01,2013-01-03 06:03:00,
2013-01-03 01:08:00,26.9,17.4,30.21,NW,304,1.0,4.0,67,0.00,,CLR,0.00,VWS V14.01,2013-01-03 06:08:00,
2013-01-03 01:13:00,27.0,17.5,30.21,NW,305,1.0,4.0,67,0.00,,CLR,0.00,VWS V14.01,2013-01-03 06:13:00,
2013-01-03 01:18:00,27.0,17.5,30.21,WNW,299,2.0,4.0,67,0.00,,CLR,0.00,VWS V14.01,2013-01-03 06:18:00,
2013-01-03 01:23:00,27.0,17.5,30.21,NW,321,2.0,4.0,67,0.00,,CLR,0.00,VWS V14.01,2013-01-03 06:23:00,
2013-01-03 01:29:00,26.9,17.4,30.21,NW,321,2.0,5.0,67,0.00,,CLR,0.00,VWS V14.01,2013-01-03 06:29:00,
2013-01-03 01:34:00,26.9,17.4,30.21,NNW,346,0.0,4.0,67,0.00,,CLR,0.00,VWS V14.01,2013-01-03 06:34:00,
2013-01-03 01:39:00,26.8,17.3,30.21,NNW,346,0.0,4.0,67,0.00,,CLR,0.00,VWS V14.01,2013-01-03 06:39:00,
2013-01-03 01:44:00,26.7,17.2,30.20,WNW,302,4.0,5.0,67,0.00,,CLR,0.00,VWS V14.01,2013-01-03 06:44:00,
2013-01-03 01:49:00,26.7,17.2,30.20,NW,309,0.0,5.0,67,0.00,,CLR,0.00,VWS V14.01,2013-01-03 06:49:00,
2013-01-03 01:54:00,26.7,17.2,30.21,NW,313,0.0,5.0,67,0.00,,CLR,0.00,VWS V14.01,2013-01-03 06:54:00,
2013-01-03 01:59:00,26.7,17.2,30.21,WNW,291,1.0,5.0,67,0.00,,CLR,0.00,VWS V14.01,2013-01-03 06:59:00,
2013-01-03 02:04:00,26.6,17.1,30.21,NW,315,2.0,2.0,67,0.00,,CLR,0.00,VWS V14.01,2013-01-03 07:04:00,
2013-01-03 02:09:00,26.6,17.5,30.21,WNW,300,1.0,3.0,68,0.00,,CLR,0.00,VWS V14.01,2013-01-03 07:09:00,
2013-01-03 02:14:00,26.5,17.4,30.22,WNW,298,2.0,3.0,68,0.00,,CLR,0.00,VWS V14.01,2013-01-03 07:14:00,
2013-01-03 02:19:00,26.5,17.4,30.22,WNW,290,1.0,4.0,68,0.00,,CLR,0.00,VWS V14.01,2013-01-03 07:19:00,
2013-01-03 02:24:00,26.5,17.4,30.22,NNW,340,0.0,4.0,68,0.00,,CLR,0.00,VWS V14.01,2013-01-03 07:24:00,
2013-01-03 02:29:00,26.5,17.4,30.22,NNW,339,0.0,4.0,68,0.00,,CLR,0.00,VWS V14.01,2013-01-03 07:29:00,
2013-01-03 02:34:00,26.5,17.4,30.22,WNW,302,0.0,3.0,68,0.00,,CLR,0.00,VWS V14.01,2013-01-03 07:34:00,
2013-01-03 02:39:00,26.5,17.4,30.22,WNW,296,3.0,4.0,68,0.00,,CLR,0.00,VWS V14.01,2013-01-03 07:39:00,
2013-01-03 02:44:00,26.5,17.7,30.22,NW,313,0.0,4.0,69,0.00,,CLR,0.00,VWS V14.01,2013-01-03 07:44:00,
2013-01-03 02:49:00,26.5,17.4,30.22,NW,304,0.0,4.0,68,0.00,,CLR,0.00,VWS V14.01,2013-01-03 07:49:00,
2013-01-03 02:54:00,26.5,17.4,30.22,West,263,0.0,4.0,68,0.00,,CLR,0.00,VWS V14.01,2013-01-03 07:54:00,
2013-01-03 02:59:00,26.5,17.4,30.22,WNW,292,1.0,4.0,68,0.00,,CLR,0.00,VWS V14.01,2013-01-03 07:59:00,
2013-01-03 03:04:00,26.5,17.4,30.22,WNW,292,0.0,1.0,68,0.00,,CLR,0.00,VWS V14.01,2013-01-03 08:04:00,
2013-01-03 03:09:00,26.5,17.4,30.22,WNW,298,0.0,3.0,68,0.00,,CLR,0.00,VWS V14.01,2013-01-03 08:09:00,
2013-01-03 03:14:00,26.5,17.4,30.21,NW,311,2.0,4.0,68,0.00,,CLR,0.00,VWS V14.01,2013-01-03 08:14:00,
2013-01-03 03:19:00,26.4,17.3,30.21,NW,311,0.0,4.0,68,0.00,,CLR,0.00,VWS V14.01,2013-01-03 08:19:00,
2013-01-03 03:24:00,26.3,17.5,30.21,NW,311,0.0,4.0,69,0.00,,CLR,0.00,VWS V14.01,2013-01-03 08:24:00,
2013-01-03 03:29:00,26.2,17.8,30.21,NW,311,1.0,4.0,70,0.00,,CLR,0.00,VWS V14.01,2013-01-03 08:29:00,
2013-01-03 03:34:00,26.1,17.3,30.20,NW,311,0.0,2.0,69,0.00,,CLR,0.00,VWS V14.01,2013-01-03 08:34:00,
2013-01-03 03:39:00,26.0,17.6,30.20,NW,311,0.0,2.0,70,0.00,,CLR,0.00,VWS V14.01,2013-01-03 08:39:00,
2013-01-03 03:44:00,25.8,17.7,30.21,NW,311,0.0,2.0,71,0.00,,CLR,0.00,VWS V14.01,2013-01-03 08:44:00,
2013-01-03 03:49:00,25.6,17.5,30.20,NW,311,0.0,2.0,71,0.00,,CLR,0.00,VWS V14.01,2013-01-03 08:49:00,
2013-01-03 03:54:00,25.4,17.3,30.20,NW,312,0.0,2.0,71,0.00,,CLR,0.00,VWS V14.01,2013-01-03 08:54:00,
2013-01-03 03:59:00,25.3,17.2,30.20,NNW,332,0.0,2.0,71,0.00,,CLR,0.00,VWS V14.01,2013-01-03 08:59:00,
2013-01-03 04:04:00,25.2,17.1,30.20,NNW,332,0.0,0.0,71,0.00,,CLR,0.00,VWS V14.01,2013-01-03 09:04:00,
2013-01-03 04:09:00,25.0,17.3,30.20,NNW,332,0.0,1.0,72,0.00,,CLR,0.00,VWS V14.01,2013-01-03 09:09:00,
2013-01-03 04:14:00,24.9,17.2,30.19,NNW,332,0.0,1.0,72,0.00,,CLR,0.00,VWS V14.01,2013-01-03 09:14:00,
2013-01-03 04:19:00,24.7,17.0,30.20,NNW,332,0.0,1.0,72,0.00,,CLR,0.00,VWS V14.01,2013-01-03 09:19:00,
2013-01-03 04:24:00,24.6,16.9,30.19,NNW,332,0.0,1.0,72,0.00,,CLR,0.00,VWS V14.01,2013-01-03 09:24:00,
2013-01-03 04:29:00,24.5,17.1,30.20,NNW,332,0.0,1.0,73,0.00,,CLR,0.00,VWS V14.01,2013-01-03 09:29:00,
2013-01-03 04:34:00,24.5,17.1,30.20,NNW,332,0.0,0.0,73,0.00,,CLR,0.00,VWS V14.01,2013-01-03 09:34:00,
2013-01-03 04:39:00,24.4,17.0,30.20,NNW,332,0.0,0.0,73,0.00,,CLR,0.00,VWS V14.01,2013-01-03 09:39:00,
2013-01-03 04:44:00,24.3,16.9,30.20,NNW,332,0.0,0.0,73,0.00,,CLR,0.00,VWS V14.01,2013-01-03 09:44:00,
2013-01-03 04:50:00,24.3,16.9,30.20,NNW,332,0.0,1.0,73,0.00,,CLR,0.00,VWS V14.01,2013-01-03 09:50:00,
2013-01-03 04:55:00,24.4,17.0,30.20,NNW,332,0.0,1.0,73,0.00,,CLR,0.00,VWS V14.01,2013-01-03 09:55:00,
2013-01-03 05:00:00,24.4,17.3,30.20,NNW,332,0.0,0.0,74,0.00,,CLR,0.00,VWS V14.01,2013-01-03 10:00:00,
2013-01-03 05:05:00,24.3,17.8,30.20,NNW,332,0.0,0.0,76,0.00,,CLR,0.00,VWS V14.01,2013-01-03 10:05:00,
2013-01-03 05:10:00,24.2,18.0,30.20,NNW,332,0.0,0.0,77,0.00,,CLR,0.00,VWS V14.01,2013-01-03 10:10:00,
2013-01-03 05:15:00,24.0,17.9,30.20,NNW,332,0.0,0.0,77,0.00,,CLR,0.00,VWS V14.01,2013-01-03 10:15:00,
2013-01-03 05:20:00,23.8,17.7,30.20,NNW,332,0.0,0.0,77,0.00,,CLR,0.00,VWS V14.01,2013-01-03 10:20:00,
2013-01-03 05:25:00,23.6,17.5,30.20,NNW,332,0.0,1.0,77,0.00,,CLR,0.00,VWS V14.01,2013-01-03 10:25:00,
2013-01-03 05:30:00,23.6,17.5,30.20,NNW,332,0.0,0.0,77,0.00,,CLR,0.00,VWS V14.01,2013-01-03 10:30:00,
2013-01-03 05:35:00,23.5,17.4,30.20,NNW,332,0.0,0.0,77,0.00,,CLR,0.00,VWS V14.01,2013-01-03 10:35:00,
2013-01-03 05:40:00,23.4,17.6,30.20,NNW,332,0.0,0.0,78,0.00,,CLR,0.00,VWS V14.01,2013-01-03 10:40:00,
2013-01-03 05:45:00,23.4,17.6,30.20,NNW,332,0.0,0.0,78,0.00,,CLR,0.00,VWS V14.01,2013-01-03 10:45:00,
2013-01-03 05:50:00,23.3,17.8,30.20,NNW,332,0.0,2.0,79,0.00,,CLR,0.00,VWS V14.01,2013-01-03 10:50:00,
2013-01-03 05:55:00,23.3,17.5,30.20,NNW,332,0.0,2.0,78,0.00,,CLR,0.00,VWS V14.01,2013-01-03 10:55:00,
2013-01-03 06:00:00,23.3,17.8,30.20,NNW,332,0.0,0.0,79,0.00,,CLR,0.00,VWS V14.01,2013-01-03 11:00:00,
2013-01-03 06:05:00,23.3,17.8,30.20,NNW,332,0.0,0.0,79,0.00,,CLR,0.00,VWS V14.01,2013-01-03 11:05:00,
2013-01-03 06:10:00,23.2,18.0,30.20,NNW,332,0.0,0.0,80,0.00,,CLR,0.00,VWS V14.01,2013-01-03 11:10:00,
2013-01-03 06:15:00,23.1,17.9,30.21,NNW,332,0.0,0.0,80,0.00,,CLR,0.00,VWS V14.01,2013-01-03 11:15:00,
2013-01-03 06:20:00,23.0,17.5,30.21,NNW,332,0.0,0.0,79,0.00,,CLR,0.00,VWS V14.01,2013-01-03 11:20:00,
2013-01-03 06:25:00,22.9,17.7,30.21,NNW,332,0.0,0.0,80,0.00,,CLR,0.00,VWS V14.01,2013-01-03 11:25:00,
2013-01-03 06:30:00,22.9,18.0,30.20,NNW,332,0.0,0.0,81,0.00,,CLR,0.00,VWS V14.01,2013-01-03 11:30:00,
2013-01-03 06:35:00,22.9,18.0,30.21,NNW,332,0.0,0.0,81,0.00,,CLR,0.00,VWS V14.01,2013-01-03 11:35:00,
2013-01-03 06:40:00,22.8,17.9,30.21,NNW,332,0.0,0.0,81,0.00,,CLR,0.00,VWS V14.01,2013-01-03 11:40:00,
2013-01-03 06:45:00,22.7,17.8,30.21,NNW,332,0.0,0.0,81,0.00,,CLR,0.00,VWS V14.01,2013-01-03 11:45:00,
2013-01-03 06:50:00,22.6,17.7,30.21,NNW,332,0.0,0.0,81,0.00,,CLR,0.00,VWS V14.01,2013-01-03 11:50:00,
2013-01-03 06:55:00,22.6,17.7,30.21,NNW,332,0.0,0.0,81,0.00,,CLR,0.00,VWS V14.01,2013-01-03 11:55:00,
2013-01-03 07:00:00,22.5,17.3,30.21,NNW,332,0.0,0.0,80,0.00,,CLR,0.00,VWS V14.01,2013-01-03 12:00:00,
2013-01-03 07:05:00,22.4,17.5,30.20,NNW,332,0.0,0.0,81,0.00,,CLR,0.00,VWS V14.01,2013-01-03 12:05:00,
2013-01-03 07:10:00,22.3,17.4,30.20,NNW,332,0.0,0.0,81,0.00,,CLR,0.00,VWS V14.01,2013-01-03 12:10:00,
2013-01-03 07:15:00,22.2,17.3,30.20,NNW,332,0.0,0.0,81,0.00,,CLR,0.00,VWS V14.01,2013-01-03 12:15:00,
2013-01-03 07:20:00,22.1,17.2,30.21,NNW,332,0.0,0.0,81,0.00,,CLR,0.00,VWS V14.01,2013-01-03 12:20:00,
2013-01-03 07:25:00,21.9,17.0,30.20,NNW,332,0.0,0.0,81,0.00,,CLR,0.00,VWS V14.01,2013-01-03 12:25:00,
2013-01-03 07:30:00,21.9,17.0,30.20,NNW,332,0.0,0.0,81,0.00,,CLR,0.00,VWS V14.01,2013-01-03 12:30:00,
2013-01-03 07:35:00,21.8,16.9,30.20,NNW,332,0.0,0.0,81,0.00,,CLR,0.00,VWS V14.01,2013-01-03 12:35:00,
2013-01-03 07:40:00,21.8,16.9,30.20,NNW,332,0.0,0.0,81,0.00,,CLR,0.00,VWS V14.01,2013-01-03 12:40:00,
2013-01-03 07:45:00,21.8,17.2,30.20,NNW,332,0.0,0.0,82,0.00,,CLR,0.00,VWS V14.01,2013-01-03 12:45:00,
2013-01-03 07:50:00,21.9,17.3,30.20,NNW,332,0.0,0.0,82,0.00,,CLR,0.00,VWS V14.01,2013-01-03 12:50:00,
2013-01-03 07:55:00,22.1,17.5,30.20,NNW,332,0.0,0.0,82,0.00,,CLR,0.00,VWS V14.01,2013-01-03 12:55:00,
2013-01-03 08:00:00,22.2,17.5,30.20,NNW,332,0.0,0.0,82,0.00,,CLR,0.00,VWS V14.01,2013-01-03 13:00:00,
2013-01-03 08:05:00,22.4,17.8,30.20,NNW,332,0.0,0.0,82,0.00,,CLR,0.00,VWS V14.01,2013-01-03 13:05:00,
2013-01-03 08:10:00,22.8,18.1,30.20,NNW,332,0.0,0.0,82,0.00,,CLR,0.00,VWS V14.01,2013-01-03 13:10:00,
2013-01-03 08:16:00,23.3,18.9,30.20,NNW,332,0.0,0.0,83,0.00,,CLR,0.00,VWS V14.01,2013-01-03 13:16:00,
2013-01-03 08:21:00,24.0,19.3,30.20,NNW,332,0.0,2.0,82,0.00,,CLR,0.00,VWS V14.01,2013-01-03 13:21:00,
2013-01-03 08:26:00,25.0,19.1,30.20,NNW,329,1.0,3.0,78,0.00,,CLR,0.00,VWS V14.01,2013-01-03 13:26:00,
2013-01-03 08:31:00,25.9,18.8,30.20,NW,321,2.0,3.0,74,0.00,,CLR,0.00,VWS V14.01,2013-01-03 13:31:00,
2013-01-03 08:36:00,26.8,19.0,30.21,WSW,240,2.0,4.0,72,0.00,,CLR,0.00,VWS V14.01,2013-01-03 13:36:00,
2013-01-03 08:41:00,27.4,18.9,30.21,WNW,294,3.0,4.0,70,0.00,,CLR,0.00,VWS V14.01,2013-01-03 13:41:00,
2013-01-03 08:46:00,28.3,19.1,30.21,NW,315,3.0,4.0,68,0.00,,CLR,0.00,VWS V14.01,2013-01-03 13:46:00,
2013-01-03 08:51:00,28.8,18.9,30.21,SSW,202,2.0,4.0,66,0.00,,CLR,0.00,VWS V14.01,2013-01-03 13:51:00,
2013-01-03 08:56:00,29.2,18.9,30.22,NW,315,5.0,6.0,65,0.00,,CLR,0.00,VWS V14.01,2013-01-03 13:56:00,
2013-01-03 09:01:00,30.0,19.3,30.21,NW,306,2.0,6.0,64,0.00,,CLR,0.00,VWS V14.01,2013-01-03 14:01:00,
2013-01-03 09:06:00,31.0,19.1,30.21,NNW,334,2.0,6.0,61,0.00,,CLR,0.00,VWS V14.01,2013-01-03 14:06:00,
2013-01-03 09:11:00,31.9,19.2,30.21,WNW,286,3.0,8.0,59,0.00,,CLR,0.00,VWS V14.01,2013-01-03 14:11:00,
2013-01-03 09:16:00,32.3,18.8,30.21,NNW,328,1.0,8.0,57,0.00,,CLR,0.00,VWS V14.01,2013-01-03 14:16:00,
2013-01-03 09:21:00,32.6,19.1,30.22,NW,321,7.0,8.0,57,0.00,,CLR,0.00,VWS V14.01,2013-01-03 14:21:00,
2013-01-03 09:26:00,33.0,18.6,30.22,WNW,290,3.0,8.0,55,0.00,,CLR,0.00,VWS V14.01,2013-01-03 14:26:00,
2013-01-03 09:31:00,33.0,19.0,30.22,NW,309,4.0,7.0,56,0.00,,CLR,0.00,VWS V14.01,2013-01-03 14:31:00,
2013-01-03 09:36:00,32.4,17.6,30.22,NNW,332,4.0,8.0,54,0.00,,CLR,0.00,VWS V14.01,2013-01-03 14:36:00,
2013-01-03 09:41:00,32.2,18.3,30.22,West,265,1.0,8.0,56,0.00,,CLR,0.00,VWS V14.01,2013-01-03 14:41:00,
2013-01-03 09:46:00,31.6,18.1,30.22,WNW,289,3.0,8.0,57,0.00,,CLR,0.00,VWS V14.01,2013-01-03 14:46:00,
2013-01-03 09:51:00,31.2,17.3,30.22,WSW,241,0.0,8.0,56,0.00,,CLR,0.00,VWS V14.01,2013-01-03 14:51:00,
2013-01-03 09:56:00,31.5,18.4,30.22,NW,317,2.0,8.0,58,0.00,,CLR,0.00,VWS V14.01,2013-01-03 14:56:00,
2013-01-03 10:01:00,32.5,19.0,30.22,WNW,288,1.0,9.0,57,0.00,,CLR,0.00,VWS V14.01,2013-01-03 15:01:00,
2013-01-03 10:06:00,33.1,18.7,30.22,NW,308,3.0,9.0,55,0.00,,CLR,0.00,VWS V14.01,2013-01-03 15:06:00,
2013-01-03 10:11:00,33.4,18.6,30.22,WSW,249,2.0,9.0,54,0.00,,CLR,0.00,VWS V14.01,2013-01-03 15:11:00,
2013-01-03 10:16:00,33.6,18.7,30.22,WNW,282,5.0,9.0,54,0.00,,CLR,0.00,VWS V14.01,2013-01-03 15:16:00,
2013-01-03 10:21:00,33.9,18.6,30.21,NNW,332,5.0,9.0,53,0.00,,CLR,0.00,VWS V14.01,2013-01-03 15:21:00,
2013-01-03 10:26:00,33.9,18.1,30.21,WNW,290,3.0,9.0,52,0.00,,CLR,0.00,VWS V14.01,2013-01-03 15:26:00,
2013-01-03 10:31:00,34.0,18.2,30.21,NW,316,6.0,7.0,52,0.00,,CLR,0.00,VWS V14.01,2013-01-03 15:31:00,
2013-01-03 10:36:00,34.3,18.5,30.21,WNW,290,0.0,7.0,52,0.00,,CLR,0.00,VWS V14.01,2013-01-03 15:36:00,
2013-01-03 10:41:00,34.6,18.8,30.21,SW,232,2.0,7.0,52,0.00,,CLR,0.00,VWS V14.01,2013-01-03 15:41:00,
2013-01-03 10:46:00,34.4,18.2,30.20,NW,312,3.0,7.0,51,0.00,,CLR,0.00,VWS V14.01,2013-01-03 15:46:00,
2013-01-03 10:52:00,34.4,18.6,30.20,NW,304,1.0,7.0,52,0.00,,CLR,0.00,VWS V14.01,2013-01-03 15:52:00,
2013-01-03 10:57:00,34.1,17.9,30.19,WNW,298,0.0,7.0,51,0.00,,CLR,0.00,VWS V14.01,2013-01-03 15:57:00,
2013-01-03 11:02:00,34.2,18.4,30.19,NW,319,1.0,5.0,52,0.00,,CLR,0.00,VWS V14.01,2013-01-03 16:02:00,
2013-01-03 11:07:00,34.7,17.5,30.19,NW,321,3.0,7.0,49,0.00,,CLR,0.00,VWS V14.01,2013-01-03 16:07:00,
2013-01-03 11:12:00,34.7,18.0,30.19,West,265,2.0,7.0,50,0.00,,CLR,0.00,VWS V14.01,2013-01-03 16:12:00,
2013-01-03 11:17:00,33.9,17.2,30.18,NW,313,1.0,7.0,50,0.00,,CLR,0.00,VWS V14.01,2013-01-03 16:17:00,
2013-01-03 11:22:00,33.7,17.5,30.18,NW,325,2.0,7.0,51,0.00,,CLR,0.00,VWS V14.01,2013-01-03 16:22:00,
2013-01-03 11:27:00,33.6,17.4,30.18,WNW,298,2.0,8.0,51,0.00,,CLR,0.00,VWS V14.01,2013-01-03 16:27:00,
2013-01-03 11:32:00,33.7,18.0,30.18,WSW,247,1.0,4.0,52,0.00,,CLR,0.00,VWS V14.01,2013-01-03 16:32:00,
2013-01-03 11:37:00,33.6,17.9,30.18,WSW,241,0.0,5.0,52,0.00,,CLR,0.00,VWS V14.01,2013-01-03 16:37:00,
2013-01-03 11:42:00,33.7,18.0,30.18,WNW,303,5.0,6.0,52,0.00,,CLR,0.00,VWS V14.01,2013-01-03 16:42:00,
2013-01-03 11:47:00,34.1,18.3,30.17,WNW,300,3.0,6.0,52,0.00,,CLR,0.00,VWS V14.01,2013-01-03 16:47:00,
2013-01-03 11:52:00,34.1,17.4,30.17,WSW,256,1.0,6.0,50,0.00,,CLR,0.00,VWS V14.01,2013-01-03 16:52:00,
2013-01-03 11:57:00,34.2,18.0,30.16,WNW,302,4.0,6.0,51,0.00,,CLR,0.00,VWS V14.01,2013-01-03 16:57:00,
2013-01-03 12:02:00,34.3,18.1,30.16,WNW,291,1.0,10.0,51,0.00,,CLR,0.00,VWS V14.01,2013-01-03 17:02:00,
2013-01-03 12:07:00,34.3,17.6,30.16,SW,226,1.0,10.0,50,0.00,,CLR,0.00,VWS V14.01,2013-01-03 17:07:00,
2013-01-03 12:12:00,34.0,18.2,30.16,NW,309,4.0,10.0,52,0.00,,CLR,0.00,VWS V14.01,2013-01-03 17:12:00,
2013-01-03 12:17:00,34.5,18.2,30.15,West,279,3.0,10.0,51,0.00,,CLR,0.00,VWS V14.01,2013-01-03 17:17:00,
2013-01-03 12:22:00,35.0,18.2,30.15,North,355,2.0,10.0,50,0.00,,CLR,0.00,VWS V14.01,2013-01-03 17:22:00,
2013-01-03 12:27:00,35.5,18.7,30.15,WSW,254,2.0,10.0,50,0.00,,CLR,0.00,VWS V14.01,2013-01-03 17:27:00,
2013-01-03 12:32:00,35.6,18.3,30.15,WNW,292,2.0,6.0,49,0.00,,CLR,0.00,VWS V14.01,2013-01-03 17:32:00,
2013-01-03 12:37:00,36.5,19.2,30.15,NW,322,3.0,8.0,49,0.00,,CLR,0.00,VWS V14.01,2013-01-03 17:37:00,
2013-01-03 12:42:00,37.0,19.1,30.14,NW,306,2.0,8.0,48,0.00,,CLR,0.00,VWS V14.01,2013-01-03 17:42:00,
2013-01-03 12:47:00,37.3,19.4,30.15,West,281,4.0,9.0,48,0.00,,CLR,0.00,VWS V14.01,2013-01-03 17:47:00,
2013-01-03 12:52:00,36.0,17.2,30.14,South,190,2.0,9.0,46,0.00,,CLR,0.00,VWS V14.01,2013-01-03 17:52:00,
2013-01-03 12:57:00,35.9,18.6,30.14,SW,215,2.0,9.0,49,0.00,,CLR,0.00,VWS V14.01,2013-01-03 17:57:00,
2013-01-03 13:02:00,35.4,17.7,30.13,WSW,257,4.0,6.0,48,0.00,,CLR,0.00,VWS V14.01,2013-01-03 18:02:00,
2013-01-03 13:07:00,36.1,18.8,30.13,SSW,207,3.0,7.0,49,0.00,,CLR,0.00,VWS V14.01,2013-01-03 18:07:00,
2013-01-03 13:12:00,36.2,17.4,30.13,WNW,288,4.0,9.0,46,0.00,,CLR,0.00,VWS V14.01,2013-01-03 18:12:00,
2013-01-03 13:17:00,36.1,17.8,30.13,WNW,282,6.0,10.0,47,0.00,,CLR,0.00,VWS V14.01,2013-01-03 18:17:00,
2013-01-03 13:22:00,36.1,17.8,30.13,WSW,258,2.0,10.0,47,0.00,,CLR,0.00,VWS V14.01,2013-01-03 18:22:00,
2013-01-03 13:27:00,35.7,18.0,30.12,WNW,295,7.0,10.0,48,0.00,,CLR,0.00,VWS V14.01,2013-01-03 18:27:00,
2013-01-03 13:32:00,36.2,17.9,30.12,West,275,3.0,10.0,47,0.00,,CLR,0.00,VWS V14.01,2013-01-03 18:32:00,
2013-01-03 13:37:00,36.8,18.0,30.12,WNW,295,3.0,10.0,46,0.00,,CLR,0.00,VWS V14.01,2013-01-03 18:37:00,
2013-01-03 13:42:00,37.3,18.4,30.12,West,276,6.0,11.0,46,0.00,,CLR,0.00,VWS V14.01,2013-01-03 18:42:00,
2013-01-03 13:47:00,37.4,17.5,30.12,NW,313,1.0,11.0,44,0.00,,CLR,0.00,VWS V14.01,2013-01-03 18:47:00,
2013-01-03 13:52:00,37.2,17.3,30.12,SW,236,1.0,11.0,44,0.00,,CLR,0.00,VWS V14.01,2013-01-03 18:52:00,
2013-01-03 13:57:00,36.1,16.8,30.12,West,264,5.0,11.0,45,0.00,,CLR,0.00,VWS V14.01,2013-01-03 18:57:00,
2013-01-03 14:02:00,36.3,18.0,30.12,NNW,337,2.0,6.0,47,0.00,,CLR,0.00,VWS V14.01,2013-01-03 19:02:00,
2013-01-03 14:07:00,36.4,18.1,30.11,NW,311,6.0,7.0,47,0.00,,CLR,0.00,VWS V14.01,2013-01-03 19:07:00,
2013-01-03 14:12:00,36.7,17.9,30.11,NW,308,3.0,8.0,46,0.00,,CLR,0.00,VWS V14.01,2013-01-03 19:12:00,
2013-01-03 14:17:00,36.9,18.1,30.11,WSW,254,6.0,9.0,46,0.00,,CLR,0.00,VWS V14.01,2013-01-03 19:17:00,
2013-01-03 14:50:00,36.7,18.9,30.10,WNW,288,1.0,9.0,48,0.00,,CLR,0.00,VWS V14.01,2013-01-03 19:50:00,
2013-01-03 14:55:00,36.8,19.0,30.10,West,273,1.0,9.0,48,0.00,,CLR,0.00,VWS V14.01,2013-01-03 19:55:00,
2013-01-03 15:00:00,37.1,19.2,30.10,West,265,3.0,7.0,48,0.00,,CLR,0.00,VWS V14.01,2013-01-03 20:00:00,
2013-01-03 15:05:00,37.4,19.0,30.11,NW,304,5.0,8.0,47,0.00,,CLR,0.00,VWS V14.01,2013-01-03 20:05:00,
2013-01-03 15:10:00,37.0,18.7,30.10,NW,304,1.0,8.0,47,0.00,,CLR,0.00,VWS V14.01,2013-01-03 20:10:00,
2013-01-03 15:16:00,37.1,18.2,30.10,WNW,302,3.0,8.0,46,0.00,,CLR,0.00,VWS V14.01,2013-01-03 20:16:00,
2013-01-03 15:21:00,36.9,18.1,30.11,SSW,213,1.0,8.0,46,0.00,,CLR,0.00,VWS V14.01,2013-01-03 20:21:00,
2013-01-03 15:26:00,36.5,17.7,30.11,WSW,251,3.0,8.0,46,0.00,,CLR,0.00,VWS V14.01,2013-01-03 20:26:00,
2013-01-03 15:31:00,36.3,18.0,30.11,West,278,2.0,5.0,47,0.00,,CLR,0.00,VWS V14.01,2013-01-03 20:31:00,
2013-01-03 15:36:00,35.8,17.6,30.11,WNW,300,2.0,7.0,47,0.00,,CLR,0.00,VWS V14.01,2013-01-03 20:36:00,
2013-01-03 15:41:00,35.5,17.8,30.11,WNW,290,3.0,7.0,48,0.00,,CLR,0.00,VWS V14.01,2013-01-03 20:41:00,
2013-01-03 15:46:00,34.8,17.6,30.11,SW,227,3.0,7.0,49,0.00,,CLR,0.00,VWS V14.01,2013-01-03 20:46:00,
2013-01-03 15:51:00,34.5,17.8,30.11,WNW,288,4.0,8.0,50,0.00,,CLR,0.00,VWS V14.01,2013-01-03 20:51:00,
2013-01-03 15:56:00,34.3,17.6,30.11,WNW,286,4.0,8.0,50,0.00,,CLR,0.00,VWS V14.01,2013-01-03 20:56:00,
2013-01-03 16:01:00,34.2,18.0,30.11,WNW,303,3.0,5.0,51,0.00,,CLR,0.00,VWS V14.01,2013-01-03 21:01:00,
2013-01-03 16:06:00,34.0,18.2,30.11,WSW,240,2.0,5.0,52,0.00,,CLR,0.00,VWS V14.01,2013-01-03 21:06:00,
2013-01-03 16:11:00,33.6,17.4,30.11,WSW,242,3.0,5.0,51,0.00,,CLR,0.00,VWS V14.01,2013-01-03 21:11:00,
2013-01-03 16:16:00,33.0,17.3,30.11,WSW,240,2.0,5.0,52,0.00,,CLR,0.00,VWS V14.01,2013-01-03 21:16:00,
2013-01-03 16:21:00,32.8,17.6,30.12,WNW,288,0.0,5.0,53,0.00,,CLR,0.00,VWS V14.01,2013-01-03 21:21:00,
2013-01-03 16:26:00,32.7,18.3,30.12,WNW,293,1.0,5.0,55,0.00,,CLR,0.00,VWS V14.01,2013-01-03 21:26:00,
2013-01-03 16:31:00,32.6,18.2,30.12,NW,304,0.0,3.0,55,0.00,,CLR,0.00,VWS V14.01,2013-01-03 21:31:00,
2013-01-03 16:36:00,32.5,18.1,30.12,WNW,293,4.0,4.0,55,0.00,,CLR,0.00,VWS V14.01,2013-01-03 21:36:00,
2013-01-03 16:41:00,32.4,17.6,30.12,NW,312,1.0,5.0,54,0.00,,CLR,0.00,VWS V14.01,2013-01-03 21:41:00,
2013-01-03 16:46:00,32.3,17.5,30.12,WNW,295,1.0,5.0,54,0.00,,CLR,0.00,VWS V14.01,2013-01-03 21:46:00,
2013-01-03 16:51:00,32.1,17.8,30.12,WNW,300,0.0,5.0,55,0.00,,CLR,0.00,VWS V14.01,2013-01-03 21:51:00,
2013-01-03 16:56:00,31.9,17.6,30.12,WNW,300,1.0,5.0,55,0.00,,CLR,0.00,VWS V14.01,2013-01-03 21:56:00,
2013-01-03 17:01:00,31.6,17.3,30.12,WNW,298,0.0,1.0,55,0.00,,CLR,0.00,VWS V14.01,2013-01-03 22:01:00,
2013-01-03 17:06:00,31.3,17.4,30.12,NW,318,0.0,2.0,56,0.00,,CLR,0.00,VWS V14.01,2013-01-03 22:06:00,
2013-01-03 17:11:00,31.1,17.2,30.12,NW,318,0.0,2.0,56,0.00,,CLR,0.00,VWS V14.01,2013-01-03 22:11:00,
2013-01-03 17:16:00,30.9,17.1,30.12,NW,318,0.0,2.0,56,0.00,,CLR,0.00,VWS V14.01,2013-01-03 22:16:00,
2013-01-03 17:21:00,30.7,17.3,30.13,NW,318,0.0,2.0,57,0.00,,CLR,0.00,VWS V14.01,2013-01-03 22:21:00,
2013-01-03 17:26:00,30.5,17.1,30.13,South,187,0.0,3.0,57,0.00,,CLR,0.00,VWS V14.01,2013-01-03 22:26:00,
2013-01-03 17:31:00,30.3,17.3,30.13,SW,227,0.0,2.0,58,0.00,,CLR,0.00,VWS V14.01,2013-01-03 22:31:00,
2013-01-03 17:36:00,30.2,16.8,30.13,SW,231,0.0,3.0,57,0.00,,CLR,0.00,VWS V14.01,2013-01-03 22:36:00,
2013-01-03 17:41:00,30.2,17.6,30.13,West,265,1.0,3.0,59,0.00,,CLR,0.00,VWS V14.01,2013-01-03 22:41:00,
2013-01-03 17:46:00,30.2,17.2,30.13,SW,235,0.0,3.0,58,0.00,,CLR,0.00,VWS V14.01,2013-01-03 22:46:00,
2013-01-03 17:51:00,30.1,17.1,30.14,SW,218,0.0,3.0,58,0.00,,CLR,0.00,VWS V14.01,2013-01-03 22:51:00,
2013-01-03 17:56:00,30.1,17.1,30.13,SW,217,0.0,3.0,58,0.00,,CLR,0.00,VWS V14.01,2013-01-03 22:56:00,
2013-01-03 18:01:00,30.0,17.0,30.13,WSW,247,0.0,0.0,58,0.00,,CLR,0.00,VWS V14.01,2013-01-03 23:01:00,
2013-01-03 18:06:00,30.0,17.4,30.13,NW,305,0.0,3.0,59,0.00,,CLR,0.00,VWS V14.01,2013-01-03 23:06:00,
2013-01-03 18:11:00,29.9,16.9,30.13,South,178,3.0,3.0,58,0.00,,CLR,0.00,VWS V14.01,2013-01-03 23:11:00,
2013-01-03 18:16:00,29.9,16.9,30.13,SW,224,0.0,3.0,58,0.00,,CLR,0.00,VWS V14.01,2013-01-03 23:16:00,
2013-01-03 18:21:00,29.8,17.2,30.13,SW,224,0.0,3.0,59,0.00,,CLR,0.00,VWS V14.01,2013-01-03 23:21:00,
2013-01-03 18:26:00,29.7,17.1,30.14,SSW,207,0.0,3.0,59,0.00,,CLR,0.00,VWS V14.01,2013-01-03 23:26:00,
2013-01-03 18:31:00,29.6,17.0,30.14,South,177,1.0,2.0,59,0.00,,CLR,0.00,VWS V14.01,2013-01-03 23:31:00,
2013-01-03 18:36:00,29.6,17.0,30.14,SSE,159,1.0,4.0,59,0.00,,CLR,0.00,VWS V14.01,2013-01-03 23:36:00,
2013-01-03 18:41:00,29.5,17.3,30.14,SSE,160,0.0,4.0,60,0.00,,CLR,0.00,VWS V14.01,2013-01-03 23:41:00,
2013-01-03 18:46:00,29.4,17.2,30.14,SSE,160,0.0,4.0,60,0.00,,CLR,0.00,VWS V14.01,2013-01-03 23:46:00,
2013-01-03 18:51:00,29.3,17.1,30.14,SSE,163,0.0,4.0,60,0.00,,CLR,0.00,VWS V14.01,2013-01-03 23:51:00,
2013-01-03 18:56:00,29.1,17.3,30.14,SSE,163,1.0,4.0,61,0.00,,CLR,0.00,VWS V14.01,2013-01-03 23:56:00,
2013-01-03 19:01:00,29.0,17.2,30.14,SSE,163,2.0,3.0,61,0.00,,BKN095,0.00,VWS V14.01,2013-01-04 00:01:00,
2013-01-03 19:06:00,28.8,17.1,30.14,SSE,163,1.0,3.0,61,0.00,,BKN095,0.00,VWS V14.01,2013-01-04 00:06:00,
2013-01-03 19:11:00,28.7,17.3,30.14,SW,220,1.0,3.0,62,0.00,,BKN095,0.00,VWS V14.01,2013-01-04 00:11:00,
2013-01-03 19:16:00,28.7,17.3,30.14,SSE,164,0.0,3.0,62,0.00,,BKN095,0.00,VWS V14.01,2013-01-04 00:16:00,
2013-01-03 19:21:00,28.6,17.2,30.14,SSW,196,1.0,3.0,62,0.00,,BKN095,0.00,VWS V14.01,2013-01-04 00:21:00,
2013-01-03 19:26:00,28.6,17.2,30.14,South,177,2.0,3.0,62,0.00,,BKN095,0.00,VWS V14.01,2013-01-04 00:26:00,
2013-01-03 19:31:00,28.6,17.6,30.14,SW,215,0.0,2.0,63,0.00,,BKN095,0.00,VWS V14.01,2013-01-04 00:31:00,
2013-01-03 19:36:00,28.5,17.5,30.14,SW,215,0.0,2.0,63,0.00,,BKN095,0.00,VWS V14.01,2013-01-04 00:36:00,
2013-01-03 19:41:00,28.5,17.9,30.14,SW,215,0.0,2.0,64,0.00,,BKN095,0.00,VWS V14.01,2013-01-04 00:41:00,
2013-01-03 19:46:00,28.4,17.8,30.14,SSW,195,2.0,3.0,64,0.00,,BKN095,0.00,VWS V14.01,2013-01-04 00:46:00,
2013-01-03 19:51:00,28.4,17.8,30.14,SSW,200,0.0,3.0,64,0.00,,BKN095,0.00,VWS V14.01,2013-01-04 00:51:00,
2013-01-03 19:56:00,28.5,18.2,30.14,West,265,0.0,3.0,65,0.00,,BKN095,0.00,VWS V14.01,2013-01-04 00:56:00,
2013-01-03 20:01:00,28.6,18.3,30.14,SSW,194,1.0,2.0,65,0.00,,OVC095,0.00,VWS V14.01,2013-01-04 01:01:00,
2013-01-03 20:06:00,28.7,18.4,30.14,SSW,194,0.0,2.0,65,0.00,,OVC095,0.00,VWS V14.01,2013-01-04 01:06:00,
2013-01-03 20:11:00,28.6,18.3,30.13,SSW,194,0.0,2.0,65,0.00,,OVC095,0.00,VWS V14.01,2013-01-04 01:11:00,
2013-01-03 20:16:00,28.6,18.7,30.13,SSW,194,0.0,2.0,66,0.00,,OVC095,0.00,VWS V14.01,2013-01-04 01:16:00,
2013-01-03 20:21:00,28.6,18.7,30.13,SSW,213,1.0,3.0,66,0.00,,OVC095,0.00,VWS V14.01,2013-01-04 01:21:00,
2013-01-03 20:26:00,28.6,18.7,30.13,South,185,0.0,3.0,66,0.00,,OVC095,0.00,VWS V14.01,2013-01-04 01:26:00,
2013-01-03 20:31:00,28.7,18.8,30.13,South,187,1.0,2.0,66,0.00,,OVC095,0.00,VWS V14.01,2013-01-04 01:31:00,
2013-01-03 20:36:00,28.7,18.8,30.13,East,90,0.0,2.0,66,0.00,,OVC095,0.00,VWS V14.01,2013-01-04 01:36:00,
2013-01-03 20:41:00,28.7,19.1,30.13,SSE,150,0.0,2.0,67,0.00,,OVC095,0.00,VWS V14.01,2013-01-04 01:41:00,
2013-01-03 20:46:00,28.7,19.1,30.13,SW,219,1.0,3.0,67,0.00,,OVC095,0.00,VWS V14.01,2013-01-04 01:46:00,
2013-01-03 20:51:00,28.7,18.8,30.13,SSW,198,2.0,6.0,66,0.00,,OVC095,0.00,VWS V14.01,2013-01-04 01:51:00,
2013-01-03 20:56:00,28.7,19.1,30.13,South,185,1.0,6.0,67,0.00,,OVC095,0.00,VWS V14.01,2013-01-04 01:56:00,
2013-01-03 21:01:00,28.7,19.1,30.12,WSW,244,1.0,3.0,67,0.00,,SCT085,0.00,VWS V14.01,2013-01-04 02:01:00,
2013-01-03 21:07:00,28.8,19.2,30.12,WSW,240,0.0,3.0,67,0.00,,SCT085,0.00,VWS V14.01,2013-01-04 02:07:00,
2013-01-03 21:11:00,28.8,19.2,30.12,SW,215,1.0,4.0,67,0.00,,SCT085,0.00,VWS V14.01,2013-01-04 02:11:00,
2013-01-03 21:16:00,29.0,19.4,30.12,West,262,2.0,5.0,67,0.00,,SCT085,0.00,VWS V14.01,2013-01-04 02:16:00,
2013-01-03 21:21:00,29.1,19.5,30.12,WSW,241,0.0,5.0,67,0.00,,SCT085,0.00,VWS V14.01,2013-01-04 02:21:00,
2013-01-03 21:27:00,29.2,19.6,30.12,WNW,284,0.0,5.0,67,0.00,,SCT085,0.00,VWS V14.01,2013-01-04 02:27:00,
2013-01-03 21:32:00,29.2,19.6,30.12,West,266,2.0,3.0,67,0.00,,SCT085,0.00,VWS V14.01,2013-01-04 02:32:00,
2013-01-03 21:37:00,29.3,19.7,30.12,SW,224,1.0,6.0,67,0.00,,SCT085,0.00,VWS V14.01,2013-01-04 02:37:00,
2013-01-03 21:42:00,29.4,19.5,30.12,WSW,245,2.0,6.0,66,0.00,,SCT085,0.00,VWS V14.01,2013-01-04 02:42:00,
2013-01-03 21:47:00,29.6,20.0,30.12,SW,229,2.0,6.0,67,0.00,,SCT085,0.00,VWS V14.01,2013-01-04 02:47:00,
2013-01-03 21:52:00,29.6,20.0,30.12,SW,236,2.0,6.0,67,0.00,,SCT085,0.00,VWS V14.01,2013-01-04 02:52:00,
2013-01-03 21:57:00,29.7,19.8,30.12,WNW,286,3.0,6.0,66,0.00,,SCT085,0.00,VWS V14.01,2013-01-04 02:57:00,
2013-01-03 22:02:00,29.7,19.8,30.12,WSW,252,0.0,5.0,66,0.00,,BKN070,0.00,VWS V14.01,2013-01-04 03:02:00,
2013-01-03 22:07:00,29.7,19.8,30.12,SW,235,1.0,5.0,66,0.00,,BKN070,0.00,VWS V14.01,2013-01-04 03:07:00,
2013-01-03 22:12:00,29.6,19.6,30.12,West,270,0.0,5.0,66,0.00,,BKN070,0.00,VWS V14.01,2013-01-04 03:12:00,
2013-01-03 22:17:00,29.6,20.0,30.12,WSW,254,2.0,5.0,67,0.00,,BKN070,0.00,VWS V14.01,2013-01-04 03:17:00,
2013-01-03 22:22:00,29.5,19.9,30.12,West,266,3.0,5.0,67,0.00,,BKN070,0.00,VWS V14.01,2013-01-04 03:22:00,
2013-01-03 22:27:00,29.4,19.8,30.13,West,277,1.0,5.0,67,0.00,,BKN070,0.00,VWS V14.01,2013-01-04 03:27:00,
2013-01-03 22:32:00,29.4,19.8,30.13,WSW,255,1.0,2.0,67,0.00,,BKN070,0.00,VWS V14.01,2013-01-04 03:32:00,
2013-01-03 22:37:00,29.3,20.1,30.13,SW,229,1.0,2.0,68,0.00,,BKN070,0.00,VWS V14.01,2013-01-04 03:37:00,
2013-01-03 22:42:00,29.3,19.7,30.13,WSW,242,1.0,3.0,67,0.00,,BKN070,0.00,VWS V14.01,2013-01-04 03:42:00,
2013-01-03 22:47:00,29.3,20.1,30.13,WNW,303,2.0,3.0,68,0.00,,BKN070,0.00,VWS V14.01,2013-01-04 03:47:00,
2013-01-03 22:52:00,29.3,20.1,30.13,NW,317,1.0,3.0,68,0.00,,BKN070,0.00,VWS V14.01,2013-01-04 03:52:00,
2013-01-03 22:57:00,29.3,20.1,30.13,West,275,0.0,3.0,68,0.00,,BKN070,0.00,VWS V14.01,2013-01-04 03:57:00,
2013-01-03 23:02:00,29.4,20.2,30.13,WSW,251,1.0,1.0,68,0.00,,OVC055,0.00,VWS V14.01,2013-01-04 04:02:00,
2013-01-03 23:07:00,29.5,20.6,30.13,WSW,251,2.0,2.0,69,0.00,,OVC055,0.00,VWS V14.01,2013-01-04 04:07:00,
2013-01-03 23:12:00,29.6,20.0,30.13,NNW,348,1.0,4.0,67,0.00,,OVC055,0.00,VWS V14.01,2013-01-04 04:12:00,
2013-01-03 23:17:00,29.7,20.1,30.12,WSW,248,2.0,4.0,67,0.00,,OVC055,0.00,VWS V14.01,2013-01-04 04:17:00,
2013-01-03 23:22:00,29.8,20.2,30.12,SSW,200,1.0,4.0,67,0.00,,OVC055,0.00,VWS V14.01,2013-01-04 04:22:00,
2013-01-03 23:27:00,29.9,20.3,30.13,SE,146,0.0,4.0,67,0.00,,OVC055,0.00,VWS V14.01,2013-01-04 04:27:00,
2013-01-03 23:32:00,30.0,20.4,30.12,SW,223,2.0,3.0,67,0.00,,OVC055,0.00,VWS V14.01,2013-01-04 04:32:00,
2013-01-03 23:37:00,30.1,20.1,30.12,South,183,0.0,4.0,66,0.00,,OVC055,0.00,VWS V14.01,2013-01-04 04:37:00,
2013-01-03 23:42:00,30.4,20.4,30.12,WNW,288,0.0,4.0,66,0.00,,OVC055,0.00,VWS V14.01,2013-01-04 04:42:00,
2013-01-03 23:47:00,30.6,20.2,30.12,SW,236,1.0,4.0,65,0.00,,OVC055,0.00,VWS V14.01,2013-01-04 04:47:00,
2013-01-03 23:52:00,30.9,20.5,30.12,WNW,290,0.0,6.0,65,0.00,,OVC055,0.00,VWS V14.01,2013-01-04 04:52:00,
2013-01-03 23:57:00,31.0,20.6,30.11,NW,306,3.0,6.0,65,0.00,,OVC055,0.00,VWS V14.01,2013-01-04 04:57:00,